Imperial, CA

11:33 PM PDT on March 24, 2017 (GMT -0700)
Imperial County

Weather History for KIPL - November, 2012

Change the Weather History Date:

Monday, November 12, 2012

  Actual Average Record
Temperature  
Mean Temperature 54 °F -  
Max Temperature 70 °F 78 °F 92 °F (1973)
Min Temperature 37 °F 51 °F 34 °F (1950)
Degree Days  
Heating Degree Days 12    
Growing Degree Days 4 (Base 50)    
Moisture  
Dew Point 21 °F    
Average Humidity 33    
Maximum Humidity 60    
Minimum Humidity 11    
Precipitation  
Precipitation 0.00 in - - ()
Sea Level Pressure  
Sea Level Pressure 30.23 in    
Wind  
Wind Speed 6 mph (West)    
Max Wind Speed 8 mph    
Max Gust Speed -    
Visibility 10 miles    
Events      
Averages and records for this station are not official NWS values.
T = Trace of Precipitation, MM = Missing Value Source: NWS Daily Summary

Daily Weather History Graph

Daily Weather History Graph

Search for Another Location

Airport or City:

Trip Planner

Search our weather history database for the weather conditions in past years. The results will help you decide how hot, cold, wet, or windy it might be!

Date:

Astronomy

Nov. 12, 2012 Rise Set
Actual Time 6:10 AM PST 4:42 PM PST
Civil Twilight 5:44 AM PST 5:08 PM PST
Nautical Twilight 5:14 AM PST 5:38 PM PST
Astronomical Twilight 4:45 AM PST 6:07 PM PST
Moon 4:43 AM PST (11/12) 3:49 PM PST (11/12)
Length of Visible Light 11h 24m
Length of Day
10h 32m
Waning Crescent, 2% of the Moon is Illuminated
Nov 12
Waning Crescent
Nov 13
New
Nov 20
First Quarter
Nov 28
Full
Dec 6
Last Quarter

Hourly Weather History & Observations

Time (PST) Temp. Windchill Dew Point Humidity Pressure Visibility Wind Dir Wind Speed Gust Speed Precip Events Conditions
12:53 AM 39.9 °F 35.1 °F 25.0 °F 55% 30.32 in 10.0 mi West 6.9 mph - N/A   Clear
1:53 AM 39.0 °F 34.8 °F 24.1 °F 55% 30.31 in 10.0 mi West 5.8 mph - N/A   Clear
2:53 AM 37.9 °F 32.1 °F 25.0 °F 60% 30.29 in 10.0 mi West 8.1 mph - N/A   Clear
3:53 AM 39.9 °F 35.1 °F 23.0 °F 51% 30.29 in 10.0 mi WSW 6.9 mph - N/A   Clear
4:53 AM 39.0 °F 33.4 °F 23.0 °F 53% 30.29 in 10.0 mi WSW 8.1 mph - N/A   Clear
5:53 AM 41.0 °F 39.0 °F 21.9 °F 47% 30.30 in 10.0 mi West 3.5 mph - N/A   Clear
6:53 AM 41.0 °F 38.0 °F 21.9 °F 47% 30.31 in 10.0 mi West 4.6 mph - N/A   Clear
7:53 AM 48.0 °F - 28.0 °F 46% 30.32 in 10.0 mi West 5.8 mph - N/A   Clear
8:53 AM 57.9 °F - 27.0 °F 31% 30.31 in 10.0 mi WNW 5.8 mph - N/A   Clear
9:53 AM 63.0 °F - 25.0 °F 24% 30.30 in 10.0 mi NW 8.1 mph - N/A   Clear
10:53 AM 66.0 °F - 19.9 °F 17% 30.27 in 10.0 mi NNW 6.9 mph - N/A   Clear
11:53 AM 66.9 °F - 18.0 °F 15% 30.23 in 10.0 mi NNW 3.5 mph - N/A   Clear
12:53 PM 69.1 °F - 15.1 °F 13% 30.20 in 10.0 mi NW 8.1 mph - N/A   Clear
1:53 PM 70.0 °F - 15.1 °F 12% 30.18 in 10.0 mi Variable 3.5 mph - N/A   Clear
2:53 PM 70.0 °F - 12.0 °F 11% 30.17 in 10.0 mi Variable 4.6 mph - N/A   Clear
3:53 PM 66.9 °F - 19.0 °F 16% 30.15 in 10.0 mi WNW 4.6 mph - N/A   Clear
4:53 PM 61.0 °F - 23.0 °F 23% 30.15 in 10.0 mi West 5.8 mph - N/A   Clear
5:53 PM 57.0 °F - 21.9 °F 26% 30.16 in 10.0 mi West 5.8 mph - N/A   Clear
6:53 PM 53.1 °F - 24.1 °F 32% 30.17 in 10.0 mi West 5.8 mph - N/A   Clear
7:53 PM 51.1 °F - 19.0 °F 28% 30.17 in 10.0 mi West 4.6 mph - N/A   Clear
8:53 PM 48.0 °F - 19.9 °F 33% 30.17 in 10.0 mi West 6.9 mph - N/A   Clear
9:53 PM 48.0 °F - 19.0 °F 32% 30.18 in 10.0 mi West 6.9 mph - N/A   Clear
10:53 PM 46.0 °F 44.8 °F 18.0 °F 33% 30.18 in 10.0 mi NW 3.5 mph - N/A   Clear
11:53 PM 46.0 °F 43.1 °F 19.0 °F 34% 30.17 in 10.0 mi WSW 5.8 mph - N/A   Clear